Location: Molveno
(46.1500°N, 10.9667°E)
Time: 01:28:42
(UTC+00:00)

Cosmos 1766 Rocket - Pass Details

Date: 05 July 2020
Orbit: 606 x 632 km, 82.5° (Epoch: 11 August)

Event Time Altitude Azimuth Distance (km) Brightness Sun altitude
Exits shadow 22:44:23 57° 175° (S) 731 3.5 -20.7°
Maximum altitude 22:45:16 82° 98° (E) 629 3.4 -20.7°
Drops below altitude 10° 22:49:41 10° 11° (N) 1,998 7.2 -20.8°
Sets 22:51:56 0° 10° (N) 2,914 8.3 -20.9°
